owner,sensor,date,latitude,longitude,sea_surface_height_above_sea_level,qcFlag 
COMPS,ioos:station:USF.COMPS:TAR:1,2010-02-03T15:00:00Z,28.1560,-82.7580,-0.159,1111122 
COMPS,ioos:station:USF.COMPS:TAR:1,2010-02-03T15:06:00Z,28.1560,-82.7580,-0.16,1111122 
COMPS,ioos:station:USF.COMPS:TAR:1,2010-02-03T15:12:00Z,28.1560,-82.7580,-0.16,1111122 
COMPS,ioos:station:USF.COMPS:TAR:1,2010-02-03T15:18:00Z,28.1560,-82.7580,-0.161,1111122 
COMPS,ioos:station:USF.COMPS:TAR:1,2010-02-03T15:24:00Z,28.1560,-82.7580,-0.161,1111122 
COMPS,ioos:station:USF.COMPS:TAR:1,2010-02-03T15:30:00Z,28.1560,-82.7580,-0.163,1111122 
COMPS,ioos:station:USF.COMPS:TAR:1,2010-02-03T15:36:00Z,28.1560,-82.7580,-0.164,1111122 
COMPS,ioos:station:USF.COMPS:TAR:1,2010-02-03T15:42:00Z,28.1560,-82.7580,-0.165,1111122 
COMPS,ioos:station:USF.COMPS:TAR:1,2010-02-03T15:48:00Z,28.1560,-82.7580,-0.167,1111122 
COMPS,ioos:station:USF.COMPS:TAR:1,2010-02-03T15:54:00Z,28.1560,-82.7580,-0.169,1111122 
COMPS,ioos:station:USF.COMPS:TAR:1,2010-02-03T16:00:00Z,28.1560,-82.7580,-0.171,1111122 
COMPS,ioos:station:USF.COMPS:TAR:1,2010-02-03T16:06:00Z,28.1560,-82.7580,-0.171,1111122 
COMPS,ioos:station:USF.COMPS:TAR:1,2010-02-03T16:12:00Z,28.1560,-82.7580,-0.172,1111122 
COMPS,ioos:station:USF.COMPS:TAR:1,2010-02-03T16:18:00Z,28.1560,-82.7580,-0.174,1111122 
COMPS,ioos:station:USF.COMPS:TAR:1,2010-02-03T16:24:00Z,28.1560,-82.7580,-0.177,1111122 
COMPS,ioos:station:USF.COMPS:TAR:1,2010-02-03T16:30:00Z,28.1560,-82.7580,-0.178,1111122 
COMPS,ioos:station:USF.COMPS:TAR:1,2010-02-03T16:36:00Z,28.1560,-82.7580,-0.181,1111122 
COMPS,ioos:station:USF.COMPS:TAR:1,2010-02-03T16:42:00Z,28.1560,-82.7580,-0.183,1111122 
COMPS,ioos:station:USF.COMPS:TAR:1,2010-02-03T16:48:00Z,28.1560,-82.7580,-0.186,1111122 
COMPS,ioos:station:USF.COMPS:TAR:1,2010-02-03T16:54:00Z,28.1560,-82.7580,-0.189,1111122 
COMPS,ioos:station:USF.COMPS:TAR:1,2010-02-03T17:00:00Z,28.1560,-82.7580,-0.19,1111122 
COMPS,ioos:station:USF.COMPS:TAR:1,2010-02-03T17:06:00Z,28.1560,-82.7580,-0.191,1111122 
COMPS,ioos:station:USF.COMPS:TAR:1,2010-02-03T17:12:00Z,28.1560,-82.7580,-0.194,1111122 
COMPS,ioos:station:USF.COMPS:TAR:1,2010-02-03T17:18:00Z,28.1560,-82.7580,-0.195,1111122 
COMPS,ioos:station:USF.COMPS:TAR:1,2010-02-03T17:24:00Z,28.1560,-82.7580,-0.196,1111122 
COMPS,ioos:station:USF.COMPS:TAR:1,2010-02-03T17:30:00Z,28.1560,-82.7580,-0.195,1111122 
COMPS,ioos:station:USF.COMPS:TAR:1,2010-02-03T17:36:00Z,28.1560,-82.7580,-0.194,1111122 
COMPS,ioos:station:USF.COMPS:TAR:1,2010-02-03T17:42:00Z,28.1560,-82.7580,-0.195,1111122 
COMPS,ioos:station:USF.COMPS:TAR:1,2010-02-03T17:48:00Z,28.1560,-82.7580,-0.197,1111122 
COMPS,ioos:station:USF.COMPS:TAR:1,2010-02-03T17:54:00Z,28.1560,-82.7580,-0.197,1111122 
COMPS,ioos:station:USF.COMPS:TAR:1,2010-02-03T18:00:00Z,28.1560,-82.7580,-0.198,1111122 
COMPS,ioos:station:USF.COMPS:TAR:1,2010-02-03T18:06:00Z,28.1560,-82.7580,-0.2,1111122 
COMPS,ioos:station:USF.COMPS:TAR:1,2010-02-03T18:12:00Z,28.1560,-82.7580,-0.201,1111122 
COMPS,ioos:station:USF.COMPS:TAR:1,2010-02-03T18:18:00Z,28.1560,-82.7580,-0.201,1111122 
COMPS,ioos:station:USF.COMPS:TAR:1,2010-02-03T18:24:00Z,28.1560,-82.7580,-0.202,1111122 
COMPS,ioos:station:USF.COMPS:TAR:1,2010-02-03T18:30:00Z,28.1560,-82.7580,-0.203,1111122 
COMPS,ioos:station:USF.COMPS:TAR:1,2010-02-03T18:36:00Z,28.1560,-82.7580,-0.202,1111122 
COMPS,ioos:station:USF.COMPS:TAR:1,2010-02-03T18:42:00Z,28.1560,-82.7580,-0.204,1111122 
COMPS,ioos:station:USF.COMPS:TAR:1,2010-02-03T18:48:00Z,28.1560,-82.7580,-0.203,1111122 
COMPS,ioos:station:USF.COMPS:TAR:1,2010-02-03T18:54:00Z,28.1560,-82.7580,-0.203,1111122 
COMPS,ioos:station:USF.COMPS:TAR:1,2010-02-03T19:00:00Z,28.1560,-82.7580,-0.205,1111122 
COMPS,ioos:station:USF.COMPS:TAR:1,2010-02-03T19:06:00Z,28.1560,-82.7580,-0.205,1111122 
COMPS,ioos:station:USF.COMPS:TAR:1,2010-02-03T19:12:00Z,28.1560,-82.7580,-0.203,1111122 
COMPS,ioos:station:USF.COMPS:TAR:1,2010-02-03T19:18:00Z,28.1560,-82.7580,-0.202,1111122 
COMPS,ioos:station:USF.COMPS:TAR:1,2010-02-03T19:24:00Z,28.1560,-82.7580,-0.203,1111122 
COMPS,ioos:station:USF.COMPS:TAR:1,2010-02-03T19:30:00Z,28.1560,-82.7580,-0.2,1111122 
COMPS,ioos:station:USF.COMPS:TAR:1,2010-02-03T19:36:00Z,28.1560,-82.7580,-0.201,1111122 
COMPS,ioos:station:USF.COMPS:TAR:1,2010-02-03T19:42:00Z,28.1560,-82.7580,-0.199,1111122 
COMPS,ioos:station:USF.COMPS:TAR:1,2010-02-03T19:48:00Z,28.1560,-82.7580,-0.197,1111122 
COMPS,ioos:station:USF.COMPS:TAR:1,2010-02-03T19:54:00Z,28.1560,-82.7580,-0.196,1111122 
COMPS,ioos:station:USF.COMPS:TAR:1,2010-02-03T20:00:00Z,28.1560,-82.7580,-0.195,1111122 
COMPS,ioos:station:USF.COMPS:TAR:1,2010-02-03T20:06:00Z,28.1560,-82.7580,-0.194,1111122 
COMPS,ioos:station:USF.COMPS:TAR:1,2010-02-03T20:12:00Z,28.1560,-82.7580,-0.193,1111122 
COMPS,ioos:station:USF.COMPS:TAR:1,2010-02-03T20:18:00Z,28.1560,-82.7580,-0.191,1111122 
COMPS,ioos:station:USF.COMPS:TAR:1,2010-02-03T20:24:00Z,28.1560,-82.7580,-0.189,1111122 
COMPS,ioos:station:USF.COMPS:TAR:1,2010-02-03T20:30:00Z,28.1560,-82.7580,-0.189,1111122 
COMPS,ioos:station:USF.COMPS:TAR:1,2010-02-03T20:36:00Z,28.1560,-82.7580,-0.187,1111122 
COMPS,ioos:station:USF.COMPS:TAR:1,2010-02-03T20:42:00Z,28.1560,-82.7580,-0.185,1111122 
COMPS,ioos:station:USF.COMPS:TAR:1,2010-02-03T20:48:00Z,28.1560,-82.7580,-0.183,1111122 
COMPS,ioos:station:USF.COMPS:TAR:1,2010-02-03T20:54:00Z,28.1560,-82.7580,-0.182,1111122 
COMPS,ioos:station:USF.COMPS:TAR:1,2010-02-03T21:00:00Z,28.1560,-82.7580,-0.181,1111122 
COMPS,ioos:station:USF.COMPS:TAR:1,2010-02-03T21:06:00Z,28.1560,-82.7580,-0.181,1111122 
COMPS,ioos:station:USF.COMPS:TAR:1,2010-02-03T21:12:00Z,28.1560,-82.7580,-0.18,1111122 
COMPS,ioos:station:USF.COMPS:TAR:1,2010-02-03T21:18:00Z,28.1560,-82.7580,-0.178,1111122 
COMPS,ioos:station:USF.COMPS:TAR:1,2010-02-03T21:24:00Z,28.1560,-82.7580,-0.177,1111122 
COMPS,ioos:station:USF.COMPS:TAR:1,2010-02-03T21:30:00Z,28.1560,-82.7580,-0.174,1111122 
COMPS,ioos:station:USF.COMPS:TAR:1,2010-02-03T21:36:00Z,28.1560,-82.7580,-0.174,1111122 
COMPS,ioos:station:USF.COMPS:TAR:1,2010-02-03T21:42:00Z,28.1560,-82.7580,-0.173,1111122 
COMPS,ioos:station:USF.COMPS:TAR:1,2010-02-03T21:48:00Z,28.1560,-82.7580,-0.172,1111122 
COMPS,ioos:station:USF.COMPS:TAR:1,2010-02-03T21:54:00Z,28.1560,-82.7580,-0.168,1111122 
COMPS,ioos:station:USF.COMPS:TAR:1,2010-02-03T22:00:00Z,28.1560,-82.7580,-0.167,1111122 
COMPS,ioos:station:USF.COMPS:TAR:1,2010-02-03T22:06:00Z,28.1560,-82.7580,-0.165,1111122 
COMPS,ioos:station:USF.COMPS:TAR:1,2010-02-03T22:12:00Z,28.1560,-82.7580,-0.164,1111122 
COMPS,ioos:station:USF.COMPS:TAR:1,2010-02-03T22:18:00Z,28.1560,-82.7580,-0.163,1111122 
COMPS,ioos:station:USF.COMPS:TAR:1,2010-02-03T22:24:00Z,28.1560,-82.7580,-0.162,1111122 
COMPS,ioos:station:USF.COMPS:TAR:1,2010-02-03T22:30:00Z,28.1560,-82.7580,-0.162,1111122 
COMPS,ioos:station:USF.COMPS:TAR:1,2010-02-03T22:36:00Z,28.1560,-82.7580,-0.16,1111122 
COMPS,ioos:station:USF.COMPS:TAR:1,2010-02-03T22:42:00Z,28.1560,-82.7580,-0.159,1111122 
COMPS,ioos:station:USF.COMPS:TAR:1,2010-02-03T22:48:00Z,28.1560,-82.7580,-0.157,1111122 
COMPS,ioos:station:USF.COMPS:TAR:1,2010-02-03T22:54:00Z,28.1560,-82.7580,-0.157,1111122 
COMPS,ioos:station:USF.COMPS:TAR:1,2010-02-03T23:00:00Z,28.1560,-82.7580,-0.155,1111122 
COMPS,ioos:station:USF.COMPS:TAR:1,2010-02-03T23:06:00Z,28.1560,-82.7580,-0.154,1111122 
COMPS,ioos:station:USF.COMPS:TAR:1,2010-02-03T23:12:00Z,28.1560,-82.7580,-0.153,1111122 
COMPS,ioos:station:USF.COMPS:TAR:1,2010-02-03T23:18:00Z,28.1560,-82.7580,-0.153,1111122 
COMPS,ioos:station:USF.COMPS:TAR:1,2010-02-03T23:24:00Z,28.1560,-82.7580,-0.152,1111122 
COMPS,ioos:station:USF.COMPS:TAR:1,2010-02-03T23:30:00Z,28.1560,-82.7580,-0.152,1111122 
COMPS,ioos:station:USF.COMPS:TAR:1,2010-02-03T23:36:00Z,28.1560,-82.7580,-0.152,1111122 
COMPS,ioos:station:USF.COMPS:TAR:1,2010-02-03T23:42:00Z,28.1560,-82.7580,-0.151,1111122 
COMPS,ioos:station:USF.COMPS:TAR:1,2010-02-03T23:48:00Z,28.1560,-82.7580,-0.151,1111122 
COMPS,ioos:station:USF.COMPS:TAR:1,2010-02-03T23:54:00Z,28.1560,-82.7580,-0.151,1111122 
COMPS,ioos:station:USF.COMPS:TAR:1,2010-02-04T00:00:00Z,28.1560,-82.7580,-0.151,1111122 
COMPS,ioos:station:USF.COMPS:TAR:1,2010-02-04T00:06:00Z,28.1560,-82.7580,-0.152,1111122 
COMPS,ioos:station:USF.COMPS:TAR:1,2010-02-04T00:12:00Z,28.1560,-82.7580,-0.152,1111122 
COMPS,ioos:station:USF.COMPS:TAR:1,2010-02-04T00:18:00Z,28.1560,-82.7580,-0.152,1111122 
COMPS,ioos:station:USF.COMPS:TAR:1,2010-02-04T00:24:00Z,28.1560,-82.7580,-0.152,1111122 
COMPS,ioos:station:USF.COMPS:TAR:1,2010-02-04T00:30:00Z,28.1560,-82.7580,-0.152,1111122 
COMPS,ioos:station:USF.COMPS:TAR:1,2010-02-04T00:36:00Z,28.1560,-82.7580,-0.152,1111122 
COMPS,ioos:station:USF.COMPS:TAR:1,2010-02-04T00:42:00Z,28.1560,-82.7580,-0.152,1111122 
COMPS,ioos:station:USF.COMPS:TAR:1,2010-02-04T00:48:00Z,28.1560,-82.7580,-0.153,1111122 
COMPS,ioos:station:USF.COMPS:TAR:1,2010-02-04T00:54:00Z,28.1560,-82.7580,-0.153,1111122 
COMPS,ioos:station:USF.COMPS:TAR:1,2010-02-04T01:00:00Z,28.1560,-82.7580,-0.154,1111122 
COMPS,ioos:station:USF.COMPS:TAR:1,2010-02-04T01:06:00Z,28.1560,-82.7580,-0.155,1111122 
COMPS,ioos:station:USF.COMPS:TAR:1,2010-02-04T01:12:00Z,28.1560,-82.7580,-0.155,1111122 
COMPS,ioos:station:USF.COMPS:TAR:1,2010-02-04T01:18:00Z,28.1560,-82.7580,-0.156,1111122 
COMPS,ioos:station:USF.COMPS:TAR:1,2010-02-04T01:24:00Z,28.1560,-82.7580,-0.157,1111122 
COMPS,ioos:station:USF.COMPS:TAR:1,2010-02-04T01:30:00Z,28.1560,-82.7580,-0.157,1111122 
COMPS,ioos:station:USF.COMPS:TAR:1,2010-02-04T01:36:00Z,28.1560,-82.7580,-0.158,1111122 
COMPS,ioos:station:USF.COMPS:TAR:1,2010-02-04T01:42:00Z,28.1560,-82.7580,-0.159,1111122 
COMPS,ioos:station:USF.COMPS:TAR:1,2010-02-04T01:48:00Z,28.1560,-82.7580,-0.16,1111122 
COMPS,ioos:station:USF.COMPS:TAR:1,2010-02-04T01:54:00Z,28.1560,-82.7580,-0.161,1111122 
COMPS,ioos:station:USF.COMPS:TAR:1,2010-02-04T02:00:00Z,28.1560,-82.7580,-0.163,1111122 
COMPS,ioos:station:USF.COMPS:TAR:1,2010-02-04T02:06:00Z,28.1560,-82.7580,-0.164,1111122 
COMPS,ioos:station:USF.COMPS:TAR:1,2010-02-04T02:12:00Z,28.1560,-82.7580,-0.166,1111122 
COMPS,ioos:station:USF.COMPS:TAR:1,2010-02-04T02:18:00Z,28.1560,-82.7580,-0.167,1111122 
COMPS,ioos:station:USF.COMPS:TAR:1,2010-02-04T02:24:00Z,28.1560,-82.7580,-0.168,1111122 
COMPS,ioos:station:USF.COMPS:TAR:1,2010-02-04T02:30:00Z,28.1560,-82.7580,-0.169,1111122 
COMPS,ioos:station:USF.COMPS:TAR:1,2010-02-04T02:36:00Z,28.1560,-82.7580,-0.171,1111122 
COMPS,ioos:station:USF.COMPS:TAR:1,2010-02-04T02:42:00Z,28.1560,-82.7580,-0.172,1111122 
COMPS,ioos:station:USF.COMPS:TAR:1,2010-02-04T02:48:00Z,28.1560,-82.7580,-0.174,1111122 
COMPS,ioos:station:USF.COMPS:TAR:1,2010-02-04T02:54:00Z,28.1560,-82.7580,-0.175,1111122 
COMPS,ioos:station:USF.COMPS:TAR:1,2010-02-04T03:00:00Z,28.1560,-82.7580,-0.177,1111122 
COMPS,ioos:station:USF.COMPS:TAR:1,2010-02-04T03:06:00Z,28.1560,-82.7580,-0.179,1111122 
COMPS,ioos:station:USF.COMPS:TAR:1,2010-02-04T03:12:00Z,28.1560,-82.7580,-0.181,1111122 
COMPS,ioos:station:USF.COMPS:TAR:1,2010-02-04T03:18:00Z,28.1560,-82.7580,-0.182,1111122 
COMPS,ioos:station:USF.COMPS:TAR:1,2010-02-04T03:24:00Z,28.1560,-82.7580,-0.184,1111122 
COMPS,ioos:station:USF.COMPS:TAR:1,2010-02-04T03:30:00Z,28.1560,-82.7580,-0.186,1111122 
COMPS,ioos:station:USF.COMPS:TAR:1,2010-02-04T03:36:00Z,28.1560,-82.7580,-0.187,1111122 
COMPS,ioos:station:USF.COMPS:TAR:1,2010-02-04T03:42:00Z,28.1560,-82.7580,-0.189,1111122 
COMPS,ioos:station:USF.COMPS:TAR:1,2010-02-04T03:48:00Z,28.1560,-82.7580,-0.191,1111122 
COMPS,ioos:station:USF.COMPS:TAR:1,2010-02-04T03:54:00Z,28.1560,-82.7580,-0.192,1111122 
COMPS,ioos:station:USF.COMPS:TAR:1,2010-02-04T04:00:00Z,28.1560,-82.7580,-0.194,1111122 
COMPS,ioos:station:USF.COMPS:TAR:1,2010-02-04T04:06:00Z,28.1560,-82.7580,-0.196,1111122 
COMPS,ioos:station:USF.COMPS:TAR:1,2010-02-04T04:12:00Z,28.1560,-82.7580,-0.197,1111122 
COMPS,ioos:station:USF.COMPS:TAR:1,2010-02-04T04:18:00Z,28.1560,-82.7580,-0.199,1111122 
COMPS,ioos:station:USF.COMPS:TAR:1,2010-02-04T04:24:00Z,28.1560,-82.7580,-0.2,1111122 
COMPS,ioos:station:USF.COMPS:TAR:1,2010-02-04T04:30:00Z,28.1560,-82.7580,-0.202,1111122 
COMPS,ioos:station:USF.COMPS:TAR:1,2010-02-04T04:36:00Z,28.1560,-82.7580,-0.203,1111122 
COMPS,ioos:station:USF.COMPS:TAR:1,2010-02-04T04:42:00Z,28.1560,-82.7580,-0.204,1111122 
COMPS,ioos:station:USF.COMPS:TAR:1,2010-02-04T04:48:00Z,28.1560,-82.7580,-0.206,1111122 
COMPS,ioos:station:USF.COMPS:TAR:1,2010-02-04T04:54:00Z,28.1560,-82.7580,-0.207,1111122 
COMPS,ioos:station:USF.COMPS:TAR:1,2010-02-04T05:00:00Z,28.1560,-82.7580,-0.208,1111122 
COMPS,ioos:station:USF.COMPS:TAR:1,2010-02-04T05:06:00Z,28.1560,-82.7580,-0.209,1111122 
COMPS,ioos:station:USF.COMPS:TAR:1,2010-02-04T05:12:00Z,28.1560,-82.7580,-0.21,1111122 
COMPS,ioos:station:USF.COMPS:TAR:1,2010-02-04T05:18:00Z,28.1560,-82.7580,-0.211,1111122 
COMPS,ioos:station:USF.COMPS:TAR:1,2010-02-04T05:24:00Z,28.1560,-82.7580,-0.212,1111122 
COMPS,ioos:station:USF.COMPS:TAR:1,2010-02-04T05:30:00Z,28.1560,-82.7580,-0.213,1111122 
COMPS,ioos:station:USF.COMPS:TAR:1,2010-02-04T05:36:00Z,28.1560,-82.7580,-0.213,1111122 
COMPS,ioos:station:USF.COMPS:TAR:1,2010-02-04T05:42:00Z,28.1560,-82.7580,-0.214,1111122 
COMPS,ioos:station:USF.COMPS:TAR:1,2010-02-04T05:48:00Z,28.1560,-82.7580,-0.214,1111122 
COMPS,ioos:station:USF.COMPS:TAR:1,2010-02-04T05:54:00Z,28.1560,-82.7580,-0.215,1111122 
COMPS,ioos:station:USF.COMPS:TAR:1,2010-02-04T06:00:00Z,28.1560,-82.7580,-0.216,1111122 
COMPS,ioos:station:USF.COMPS:TAR:1,2010-02-04T06:06:00Z,28.1560,-82.7580,-0.216,1111122 
COMPS,ioos:station:USF.COMPS:TAR:1,2010-02-04T06:12:00Z,28.1560,-82.7580,-0.217,1111122 
COMPS,ioos:station:USF.COMPS:TAR:1,2010-02-04T06:18:00Z,28.1560,-82.7580,-0.217,1111122 
COMPS,ioos:station:USF.COMPS:TAR:1,2010-02-04T06:24:00Z,28.1560,-82.7580,-0.217,1111122 
COMPS,ioos:station:USF.COMPS:TAR:1,2010-02-04T06:30:00Z,28.1560,-82.7580,-0.217,1111122 
COMPS,ioos:station:USF.COMPS:TAR:1,2010-02-04T06:36:00Z,28.1560,-82.7580,-0.217,1111122 
COMPS,ioos:station:USF.COMPS:TAR:1,2010-02-04T06:42:00Z,28.1560,-82.7580,-0.217,1111122 
COMPS,ioos:station:USF.COMPS:TAR:1,2010-02-04T06:48:00Z,28.1560,-82.7580,-0.217,1111122 
COMPS,ioos:station:USF.COMPS:TAR:1,2010-02-04T06:54:00Z,28.1560,-82.7580,-0.217,1111122 
COMPS,ioos:station:USF.COMPS:TAR:1,2010-02-04T07:00:00Z,28.1560,-82.7580,-0.217,1111122 
COMPS,ioos:station:USF.COMPS:TAR:1,2010-02-04T07:06:00Z,28.1560,-82.7580,-0.217,1111122 
COMPS,ioos:station:USF.COMPS:TAR:1,2010-02-04T07:12:00Z,28.1560,-82.7580,-0.217,1111122 
COMPS,ioos:station:USF.COMPS:TAR:1,2010-02-04T07:18:00Z,28.1560,-82.7580,-0.216,1111122 
COMPS,ioos:station:USF.COMPS:TAR:1,2010-02-04T07:24:00Z,28.1560,-82.7580,-0.216,1111122 
COMPS,ioos:station:USF.COMPS:TAR:1,2010-02-04T07:30:00Z,28.1560,-82.7580,-0.216,1111122 
COMPS,ioos:station:USF.COMPS:TAR:1,2010-02-04T07:36:00Z,28.1560,-82.7580,-0.216,1111122 
COMPS,ioos:station:USF.COMPS:TAR:1,2010-02-04T07:42:00Z,28.1560,-82.7580,-0.215,1111122 
COMPS,ioos:station:USF.COMPS:TAR:1,2010-02-04T07:48:00Z,28.1560,-82.7580,-0.215,1111122 
COMPS,ioos:station:USF.COMPS:TAR:1,2010-02-04T07:54:00Z,28.1560,-82.7580,-0.215,1111122 
COMPS,ioos:station:USF.COMPS:TAR:1,2010-02-04T08:00:00Z,28.1560,-82.7580,-0.215,1111122 
COMPS,ioos:station:USF.COMPS:TAR:1,2010-02-04T08:06:00Z,28.1560,-82.7580,-0.215,1111122 
COMPS,ioos:station:USF.COMPS:TAR:1,2010-02-04T08:12:00Z,28.1560,-82.7580,-0.214,1111122 
COMPS,ioos:station:USF.COMPS:TAR:1,2010-02-04T08:18:00Z,28.1560,-82.7580,-0.214,1111122 
COMPS,ioos:station:USF.COMPS:TAR:1,2010-02-04T08:24:00Z,28.1560,-82.7580,-0.214,1111122 
COMPS,ioos:station:USF.COMPS:TAR:1,2010-02-04T08:30:00Z,28.1560,-82.7580,-0.213,1111122 
COMPS,ioos:station:USF.COMPS:TAR:1,2010-02-04T08:36:00Z,28.1560,-82.7580,-0.213,1111122 
COMPS,ioos:station:USF.COMPS:TAR:1,2010-02-04T08:42:00Z,28.1560,-82.7580,-0.213,1111122 
COMPS,ioos:station:USF.COMPS:TAR:1,2010-02-04T08:48:00Z,28.1560,-82.7580,-0.212,1111122 
COMPS,ioos:station:USF.COMPS:TAR:1,2010-02-04T08:54:00Z,28.1560,-82.7580,-0.212,1111122 
COMPS,ioos:station:USF.COMPS:TAR:1,2010-02-04T09:00:00Z,28.1560,-82.7580,-0.212,1111122 
COMPS,ioos:station:USF.COMPS:TAR:1,2010-02-04T09:06:00Z,28.1560,-82.7580,-0.211,1111122 
COMPS,ioos:station:USF.COMPS:TAR:1,2010-02-04T09:12:00Z,28.1560,-82.7580,-0.211,1111122 
COMPS,ioos:station:USF.COMPS:TAR:1,2010-02-04T09:18:00Z,28.1560,-82.7580,-0.211,1111122 
COMPS,ioos:station:USF.COMPS:TAR:1,2010-02-04T09:24:00Z,28.1560,-82.7580,-0.21,1111122 
COMPS,ioos:station:USF.COMPS:TAR:1,2010-02-04T09:30:00Z,28.1560,-82.7580,-0.21,1111122 
COMPS,ioos:station:USF.COMPS:TAR:1,2010-02-04T09:36:00Z,28.1560,-82.7580,-0.21,1111122 
COMPS,ioos:station:USF.COMPS:TAR:1,2010-02-04T09:42:00Z,28.1560,-82.7580,-0.21,1111122 
COMPS,ioos:station:USF.COMPS:TAR:1,2010-02-04T09:48:00Z,28.1560,-82.7580,-0.21,1111122 
COMPS,ioos:station:USF.COMPS:TAR:1,2010-02-04T09:54:00Z,28.1560,-82.7580,-0.209,1111122 
COMPS,ioos:station:USF.COMPS:TAR:1,2010-02-04T11:00:00Z,28.1560,-82.7580,-0.205,1111122 
COMPS,ioos:station:USF.COMPS:TAR:1,2010-02-04T11:06:00Z,28.1560,-82.7580,-0.204,1111122 
COMPS,ioos:station:USF.COMPS:TAR:1,2010-02-04T11:12:00Z,28.1560,-82.7580,-0.203,1111122 
COMPS,ioos:station:USF.COMPS:TAR:1,2010-02-04T11:18:00Z,28.1560,-82.7580,-0.203,1111122 
COMPS,ioos:station:USF.COMPS:TAR:1,2010-02-04T11:24:00Z,28.1560,-82.7580,-0.203,1111122 
COMPS,ioos:station:USF.COMPS:TAR:1,2010-02-04T11:30:00Z,28.1560,-82.7580,-0.202,1111122 
COMPS,ioos:station:USF.COMPS:TAR:1,2010-02-04T11:36:00Z,28.1560,-82.7580,-0.202,1111122 
COMPS,ioos:station:USF.COMPS:TAR:1,2010-02-04T11:42:00Z,28.1560,-82.7580,-0.201,1111122 
COMPS,ioos:station:USF.COMPS:TAR:1,2010-02-04T11:48:00Z,28.1560,-82.7580,-0.201,1111122 
COMPS,ioos:station:USF.COMPS:TAR:1,2010-02-04T11:54:00Z,28.1560,-82.7580,-0.201,1111122 
COMPS,ioos:station:USF.COMPS:TAR:1,2010-02-04T12:00:00Z,28.1560,-82.7580,-0.201,1111122 
COMPS,ioos:station:USF.COMPS:TAR:1,2010-02-04T12:06:00Z,28.1560,-82.7580,-0.201,1111122 
COMPS,ioos:station:USF.COMPS:TAR:1,2010-02-04T12:12:00Z,28.1560,-82.7580,-0.201,1111122 
COMPS,ioos:station:USF.COMPS:TAR:1,2010-02-04T12:18:00Z,28.1560,-82.7580,-0.201,1111122 
COMPS,ioos:station:USF.COMPS:TAR:1,2010-02-04T12:24:00Z,28.1560,-82.7580,-0.201,1111122 
COMPS,ioos:station:USF.COMPS:TAR:1,2010-02-04T12:30:00Z,28.1560,-82.7580,-0.201,1111122 
COMPS,ioos:station:USF.COMPS:TAR:1,2010-02-04T12:36:00Z,28.1560,-82.7580,-0.201,1111122 
COMPS,ioos:station:USF.COMPS:TAR:1,2010-02-04T12:42:00Z,28.1560,-82.7580,-0.201,1111122 
COMPS,ioos:station:USF.COMPS:TAR:1,2010-02-04T12:48:00Z,28.1560,-82.7580,-0.202,1111122 
COMPS,ioos:station:USF.COMPS:TAR:1,2010-02-04T12:54:00Z,28.1560,-82.7580,-0.202,1111122 
COMPS,ioos:station:USF.COMPS:TAR:1,2010-02-04T13:00:00Z,28.1560,-82.7580,-0.202,1111122 
COMPS,ioos:station:USF.COMPS:TAR:1,2010-02-04T13:06:00Z,28.1560,-82.7580,-0.202,1111122 
COMPS,ioos:station:USF.COMPS:TAR:1,2010-02-04T13:12:00Z,28.1560,-82.7580,-0.203,1111122 
COMPS,ioos:station:USF.COMPS:TAR:1,2010-02-04T13:18:00Z,28.1560,-82.7580,-0.203,1111122 
COMPS,ioos:station:USF.COMPS:TAR:1,2010-02-04T13:24:00Z,28.1560,-82.7580,-0.202,1111122 
COMPS,ioos:station:USF.COMPS:TAR:1,2010-02-04T13:30:00Z,28.1560,-82.7580,-0.202,1111122 
COMPS,ioos:station:USF.COMPS:TAR:1,2010-02-04T13:36:00Z,28.1560,-82.7580,-0.202,1111122 
COMPS,ioos:station:USF.COMPS:TAR:1,2010-02-04T13:42:00Z,28.1560,-82.7580,-0.202,1111122 
COMPS,ioos:station:USF.COMPS:TAR:1,2010-02-04T13:48:00Z,28.1560,-82.7580,-0.202,1111122 
COMPS,ioos:station:USF.COMPS:TAR:1,2010-02-04T13:54:00Z,28.1560,-82.7580,-0.201,1111122 
COMPS,ioos:station:USF.COMPS:TAR:1,2010-02-04T14:00:00Z,28.1560,-82.7580,-0.199,1111122 
COMPS,ioos:station:USF.COMPS:TAR:1,2010-02-04T14:06:00Z,28.1560,-82.7580,-0.196,1111122 
COMPS,ioos:station:USF.COMPS:TAR:1,2010-02-04T14:12:00Z,28.1560,-82.7580,-0.193,1111122 
COMPS,ioos:station:USF.COMPS:TAR:1,2010-02-04T14:18:00Z,28.1560,-82.7580,-0.191,1111122 
COMPS,ioos:station:USF.COMPS:TAR:1,2010-02-04T14:24:00Z,28.1560,-82.7580,-0.19,1111122 
COMPS,ioos:station:USF.COMPS:TAR:1,2010-02-04T14:30:00Z,28.1560,-82.7580,-0.19,1111122 
COMPS,ioos:station:USF.COMPS:TAR:1,2010-02-04T14:36:00Z,28.1560,-82.7580,-0.19,1111122 
COMPS,ioos:station:USF.COMPS:TAR:1,2010-02-04T14:42:00Z,28.1560,-82.7580,-0.19,1111122 
COMPS,ioos:station:USF.COMPS:TAR:1,2010-02-04T14:48:00Z,28.1560,-82.7580,-0.189,1111122 
COMPS,ioos:station:USF.COMPS:TAR:1,2010-02-04T14:54:00Z,28.1560,-82.7580,-0.189,1111122 
COMPS,ioos:station:USF.COMPS:TAR:1,2010-02-04T15:00:00Z,28.1560,-82.7580,-0.19,1111122 
COMPS,ioos:station:USF.COMPS:TAR:1,2010-02-04T15:06:00Z,28.1560,-82.7580,-0.19,1111122 
COMPS,ioos:station:USF.COMPS:TAR:1,2010-02-04T15:12:00Z,28.1560,-82.7580,-0.191,1111122 
COMPS,ioos:station:USF.COMPS:TAR:1,2010-02-04T15:18:00Z,28.1560,-82.7580,-0.191,1111122 
COMPS,ioos:station:USF.COMPS:TAR:1,2010-02-04T15:24:00Z,28.1560,-82.7580,-0.192,1111122 
COMPS,ioos:station:USF.COMPS:TAR:1,2010-02-04T15:30:00Z,28.1560,-82.7580,-0.195,1111122 
COMPS,ioos:station:USF.COMPS:TAR:1,2010-02-04T15:36:00Z,28.1560,-82.7580,-0.196,1111122 
COMPS,ioos:station:USF.COMPS:TAR:1,2010-02-04T15:42:00Z,28.1560,-82.7580,-0.197,1111122 
COMPS,ioos:station:USF.COMPS:TAR:1,2010-02-04T15:48:00Z,28.1560,-82.7580,-0.197,1111122 
COMPS,ioos:station:USF.COMPS:TAR:1,2010-02-04T15:54:00Z,28.1560,-82.7580,-0.199,1111122 
COMPS,ioos:station:USF.COMPS:TAR:1,2010-02-04T16:00:00Z,28.1560,-82.7580,-0.2,1111122 
COMPS,ioos:station:USF.COMPS:TAR:1,2010-02-04T16:06:00Z,28.1560,-82.7580,-0.202,1111122 
COMPS,ioos:station:USF.COMPS:TAR:1,2010-02-04T16:12:00Z,28.1560,-82.7580,-0.203,1111122 
COMPS,ioos:station:USF.COMPS:TAR:1,2010-02-04T16:18:00Z,28.1560,-82.7580,-0.205,1111122 
COMPS,ioos:station:USF.COMPS:TAR:1,2010-02-04T16:24:00Z,28.1560,-82.7580,-0.207,1111122 
COMPS,ioos:station:USF.COMPS:TAR:1,2010-02-04T16:30:00Z,28.1560,-82.7580,-0.208,1111122 
COMPS,ioos:station:USF.COMPS:TAR:1,2010-02-04T16:36:00Z,28.1560,-82.7580,-0.209,1111122 
COMPS,ioos:station:USF.COMPS:TAR:1,2010-02-04T16:42:00Z,28.1560,-82.7580,-0.21,1111122 
COMPS,ioos:station:USF.COMPS:TAR:1,2010-02-04T16:48:00Z,28.1560,-82.7580,-0.21,1111122 
COMPS,ioos:station:USF.COMPS:TAR:1,2010-02-04T16:54:00Z,28.1560,-82.7580,-0.21,1111122 
COMPS,ioos:station:USF.COMPS:TAR:1,2010-02-04T17:00:00Z,28.1560,-82.7580,-0.211,1111122 
COMPS,ioos:station:USF.COMPS:TAR:1,2010-02-04T17:06:00Z,28.1560,-82.7580,-0.211,1111122 
COMPS,ioos:station:USF.COMPS:TAR:1,2010-02-04T17:12:00Z,28.1560,-82.7580,-0.211,1111122 
COMPS,ioos:station:USF.COMPS:TAR:1,2010-02-04T17:18:00Z,28.1560,-82.7580,-0.212,1111122 
COMPS,ioos:station:USF.COMPS:TAR:1,2010-02-04T17:24:00Z,28.1560,-82.7580,-0.214,1111122 
COMPS,ioos:station:USF.COMPS:TAR:1,2010-02-04T17:30:00Z,28.1560,-82.7580,-0.214,1111122 
COMPS,ioos:station:USF.COMPS:TAR:1,2010-02-04T17:36:00Z,28.1560,-82.7580,-0.214,1111122 
COMPS,ioos:station:USF.COMPS:TAR:1,2010-02-04T17:42:00Z,28.1560,-82.7580,-0.213,1111122 
COMPS,ioos:station:USF.COMPS:TAR:1,2010-02-04T17:48:00Z,28.1560,-82.7580,-0.213,1111122 
COMPS,ioos:station:USF.COMPS:TAR:1,2010-02-04T17:54:00Z,28.1560,-82.7580,-0.215,1111122 
COMPS,ioos:station:USF.COMPS:TAR:1,2010-02-04T18:00:00Z,28.1560,-82.7580,-0.214,1111122 
COMPS,ioos:station:USF.COMPS:TAR:1,2010-02-04T18:06:00Z,28.1560,-82.7580,-0.214,1111122 
COMPS,ioos:station:USF.COMPS:TAR:1,2010-02-04T18:12:00Z,28.1560,-82.7580,-0.213,1111122 
COMPS,ioos:station:USF.COMPS:TAR:1,2010-02-04T18:18:00Z,28.1560,-82.7580,-0.214,1111122 
COMPS,ioos:station:USF.COMPS:TAR:1,2010-02-04T18:24:00Z,28.1560,-82.7580,-0.215,1111122 
COMPS,ioos:station:USF.COMPS:TAR:1,2010-02-04T18:30:00Z,28.1560,-82.7580,-0.216,1111122 
COMPS,ioos:station:USF.COMPS:TAR:1,2010-02-04T18:36:00Z,28.1560,-82.7580,-0.215,1111122 
COMPS,ioos:station:USF.COMPS:TAR:1,2010-02-04T18:42:00Z,28.1560,-82.7580,-0.214,1111122 
COMPS,ioos:station:USF.COMPS:TAR:1,2010-02-04T18:48:00Z,28.1560,-82.7580,-0.212,1111122 